Showing default

KHAYYAM, 53370

Orbit data source: Space-Track

KHAYYAM, 53370 is an Iranian payload satellite in SSO that was launched on Tue, 09 Aug 2022 UTC via a SOYUZ-2-1B launch vehicle from the Tyuratam Missile And Space Complex (TTMTR). Payload-class satellites include a variety of spacecraft equipped with specific instruments for various scientific and technological missions. These include communications satellites like Starlink; space stations such as the ISS; scientific satellites like the Hubble; Earth observation satellites from companies like Planet Labs, Umbra, and HawkEye 360; GPS; miniature CubeSats for education and research; and military/defense satellites.

Loading next visibility...
Identifier
53370, 2022-096A
Orbit
SSO
Country
Flag of IRIR / IRAN
Related business
Manufacturer
VNIIEM
Mission
Operational Civil Imaging
Bus & Motor
KANOPUS?, Unknown motor
Mass
650 kg wet, 650 kg dry
Launch date (UTC)
2022-08-09 (4 years ago)
Launch vehicle
SOYUZ-2-1B
Launch site
Tyuratam Missile And Space Complex (TTMTR)
Object type
Payload
Rocket body
Debris
Shape & HBR
Box + 2 Pan, 3.0 m
Radar Cross Section
1.665 m², Large (>1 m²)

Expand to show TLE details & history
Last TLE update: 2 days ago

TLE from 2 days ago
0 KHAYYAM
1 53370U 22096A   26171.44105519  .00003761  00000-0  15001-3 0  9990
2 53370  97.3437  75.6072 0002369  74.2148 285.9352 15.25788386215089
Epoch: 2026-06-20T10:35Z
TLE epoch observation values (Epoch: 2026-06-20T10:35:07.168Z)
Latitude
0.00003°
Longitude
8.17169°
Altitude
491.073 km
Speed
7.62 km/s
True Right ascension
05h 02m 25s
True Declination
0° 00' 00"
Sunlit
Object was in daylight at epoch
Visualization orbit readout
Latitude
Unknown
Longitude
Unknown
Altitude
Unknown
Speed
Unknown
Apparent Right ascension
Unknown
Apparent Declination
Unknown
Sunlit
N/A
Visualization observer readout
Local Sidereal Time
21:25:01
Azimuth
Unknown
Elevation
Unknown
Doppler factor
Unknown
Orbital elements
Apogee altitude
487.001 km
Perigee altitude
483.749 km
Semi-major axis
6,863.512 km
Eccentricity
0.00024
Inclination
97.3437°
RAAN
75.6072°
Arg. of periapsis
74.2148°
True anomaly
285.90909°
Mean anomaly
285.9352°
Eccentric anomaly
285.92215°
Mean motion
3.81701 °/min
Orbital period
94.31 mins
BSTAR
0.00015001
Loading maneuver chart data...
Computing Atmospheric mass density...
Loading historical data...
Loading historical data...
Loading historical data...
Loading historical data...
Loading historical data...
Loading historical data...
Loading historical data...

Documentation

Showing up to 5 results
|